Regional Weather Roundup
Issued by NWS

Home | Current Version | Previous Version | Text Only | Print | Product List | Glossary On
Versions: 1 2 3 4 5 6 7 8 9 10 11 12 13 14 15 16 17 18 19 20 21 22 23 24 25 26 27 28 29 30 31 32 33 34 35 36 37 38 39 40 41 42 43 44 45 46 47 48 49 50
000
ASUS43 KDTX 221010
RWRMI
MICHIGAN HOURLY REGIONAL WEATHER ROUNDUP
NATIONAL WEATHER SERVICE DETROIT/PONTIAC MI
500 AM EST SUN JAN 22 2017

NOTE: "FAIR" INDICATES FEW OR NO CLOUDS BELOW 12,000 FEET WITH NO
SIGNIFICANT WEATHER AND/OR OBSTRUCTION TO VISIBILITY.

MIZ047>049-052>055-059>063-066>070-074>076-081>083-221100-
SOUTHEAST LOWER MICHIGAN

CITY           SKY/WX    TMP DP  RH WIND       PRES   REMARKS
ADRIAN         FOG       37  37 100 NE5       29.58F VSB 1/4 WCI  33
ALMA           FOG       34  34 100 CALM      29.58F VSB 1/4
ANN ARBOR      FOG       41  41 100 N3        29.59F VSB 1/4
BAD AXE        FOG       39  39 100 CALM      29.61S VSB 1/2
CARO           FOG       40  39  99 CALM      29.59S VSB 1/4
DETROIT CITY   FOG       40  40 100 CALM      29.61F VSB 1/4
DETROIT        FOG       41  41 100 CALM      29.60F VSB 1/16
FLINT          FOG       37  37 100 CALM      29.59F VSB 1/4
GROSSE ILE     FOG       36  36 100 CALM      29.59F VSB 1/2
HILLSDALE      FOG       43  43 100 CALM      29.57F VSB 1/4
HOWELL         FOG       39  38  97 SE3       29.57F VSB 1/4

CITY           SKY/WX    TMP DP  RH WIND       PRES   REMARKS
JACKSON        FOG       42  41  96 CALM      29.57F VSB 1/4
LAMBERTVILLE   FOG       44  43  95 CALM      29.57F VSB 1/2
LANSING        CLOUDY    43  40  89 CALM      29.58F
LAPEER         FOG       33  33 100 E3        29.60S VSB 1/4
MASON          FOG       40  40 100 CALM      29.58F VSB<1/4
MONROE         FOG       37  37 100 CALM      29.58F VSB 1/2
MT. CLEMENS    FOG       37  37 100 CALM      29.59F VSB 1/2
PONTIAC        FOG       38  36  92 CALM      29.59S VSB<1/4
PORT HOPE        N/A     38  38 100 S6        29.60S WCI  33
PORT HURON     FOG       39  39 100 CALM      29.62F VSB 1/4
TRI CITIES     FOG       36  36 100 NE3       29.59S VSB 1/4
MIDLAND        FOG       39  38  97 CALM      29.59S VSB<1/4
TROY           FOG       39  38  95 CALM      29.62F VSB<1/4
SAGINAW HB     FOG       37  36  93 CALM      29.58F VSB 1/4
$$
MIZ043>046-050>051-056>058-064>065-071>073-077>080-221100-
SOUTHWEST LOWER MICHIGAN

CITY           SKY/WX    TMP DP  RH WIND       PRES   REMARKS
BATTLE CREEK   FOG       42  42 100 CALM      29.57F VSB 1/4
BENTON HARBOR  FOG       39  38  96 N5        29.58F VSB 1/4
BIG RAPIDS     FOG       35  35  98 CALM      29.58S VSB 1/2
COLDWATER      FOG       44  44 100 CALM      29.57F VSB 1/4
FREMONT        FOG       36  36 100 CALM      29.58F VSB 1/4
HOLLAND        CLOUDY    41  40  96 CALM      29.58F
GRAND RAPIDS   FOG       33  31  92 CALM      29.58S VSB 1/4
IONIA          FOG       34  34 100 W3        29.57F VSB<1/4
KALAMAZOO      FOG       39  37  92 CALM      29.58S VSB 1/4
LUDINGTON      FOG       39  39 100 CALM      29.58S VSB 1/2
MARSHALL       FOG       42  41  98 CALM      29.57S VSB 1/4
MOUNT PLEASANT FOG       34  34  99 CALM      29.58F VSB 1/4
MUSKEGON       FOG       41  40  96 CALM      29.58F VSB 1/4
SOUTH HAVEN    FOG       40  40  99 CALM      29.58S VSB 1/4
$$
MIZ016>042-221100-
NORTHERN LOWER MICHIGAN

CITY           SKY/WX    TMP DP  RH WIND       PRES   REMARKS
ALPENA         FOG       36  35  96 CALM      29.61S VSB 1/2
BEAVER ISLAND  FOG       39  39 100 SW5       29.57S VSB 1/2
BELLAIRE       FOG       35  35 100 CALM      29.59S VSB 1/4
CADILLAC       FOG       38  37  97 CALM      29.56F VSB 1/4
CHARLEVOIX     FOG       38  38 100 CALM      29.61S VSB 1/2
FRANKFORT      CLOUDY    39  38  98 CALM      29.58S FOG
GAYLORD        FOG       39  36  89 E3        29.58R VSB 1/4
GRAYLING       FOG       37  37  98 CALM      29.59S VSB 1/4
HARBOR SPRINGS FOG       35  35  99 E6        29.58S VSB 1   WCI  30
HOUGHTON LAKE  FOG       38  37  97 CALM      29.59S VSB 1/4
MANISTEE       FOG       37  37 100 CALM      29.58S VSB 1/2
OSCODA         FOG       37  37  97 CALM      29.60S VSB 1/2
PELLSTON       FOG       34  33  96 CALM      29.59S VSB 1/4
ROGERS CITY    CLOUDY    39  38  96 S8        29.60S FOG     WCI  33
TRAVERSE CITY  FOG       39  37  92 CALM      29.57F VSB 3/4
$$
MIZ007>008-015-221100-
EASTERN UPPER MICHIGAN

CITY           SKY/WX    TMP DP  RH WIND       PRES   REMARKS
KINROSS        LGT RAIN  35  35 100 SE10      29.60S VSB 1/2 WCI  27
MACKINAC ISLAN FOG       36  36 100 E6        29.58S VSB 1/2 WCI  31
NEWBERRY       FOG       35  34  96 E5        29.56S VSB 1/2 WCI  31
S. S. MARIE    CLOUDY    38  36  92 E7        29.59F FOG     WCI  33
MUNISING         N/A     37  37 100 S3        29.54F
$$
MIZ004>006-011>014-085-221100-
CENTRAL UPPER MICHIGAN

CITY           SKY/WX    TMP DP  RH WIND       PRES   REMARKS
MANISTIQUE     FOG       34  33  97 CALM      29.56S VSB 1/4
ESCANABA       CLOUDY    34  34 100 CALM      29.56S FOG
SAWYER-GWINN   FOG       33  33  99 W3        29.54S VSB 1/2
$$
MIZ001>003-009>011-084-221100-
WESTERN UPPER MICHIGAN

CITY           SKY/WX    TMP DP  RH WIND       PRES   REMARKS
IRON MOUNTAIN  FOG       34  32  92 CALM      29.53F VSB 1
HOUGHTON       FOG       34  32  92 CALM      29.53S VSB 1/4
COPPER HARBOR    N/A     36  35  96 CALM      29.55S
IRONWOOD       FOG       33  33 100 SW3       29.55S VSB 1/4
$$

ABBREVIATIONS USED IN REMARKS
   TC - TEMPERATURE IN CELSIUS
  WCI - WIND CHILL INDEX
   HX - HEAT INDEX
  VSB - VISIBILITY





USA.gov is the U.S. government's official web portal to all federal, state and local government web resources and services.